Погода в Воямполка

Россия / Камчатский край     58°18′22″N   159°23′35″E
темп.,
°C
ветер,
м/с
пор.,
м/с
влажн.,
%
обл.,
%
осадки,
мм/ч
давл.,
гПа
погр.,
м
28 ноября, вс
вс2800:00−28ююв32975 0.0 101117
03:00−27ююв339798 0.0 101127
06:00−24ююв339883 0.0 101044
09:00−22ююв3398100 0.1 101058
12:00−20ююв2397100 0.1 101081
15:00−18ююв239597 0.0 100964
18:00−19ююв3397100 0.1 100945
21:00−20ююв339779 0.0 101045
29 ноября, пн
пн2900:00−16ююв3496100 0.3 1009109
03:00−15ююв2396100 0.6 1008116
06:00−14ююв3595100 0.9 1008167
09:00−14ююв3594100 0.0 100882
12:00−14ююв369280 0.0 100898
15:00−11ююв388578 0.0 1008147
18:00−13ююв488659 0.0 100889
21:00−14ююв468974 0.0 100968
30 ноября, вт
вт3000:00−12ююв4991100 0.0 1008126
03:00−11ююв4991100 0.0 1008139
06:00−9ююв4892100 0.0 1007163
09:00−10ююв3791100 0.0 1007111
12:00−9ююв3792100 0.0 1006157
15:00−9ю359298 0.0 100673
18:00−12ю349678 0.1 100754
21:00−8ююз71292100 0.3 1007615
1 декабря, ср
ср100:00−10ююз71290100 0.3 1009267
03:00−10ююз71488100 0.1 1010352
06:00−9юз71484100 0.5 1011616
09:00−8зюз81488100 0.6 1012920
12:00−7зюз81381100 1.3 10141095
15:00−7зюз71381100 0.3 1016862
18:00−8ююз51089100 0.5 1018273
21:00−9ю4994100 0.3 1018172
2 декабря, чт
чт200:00−11юв2392100 0.4 101732
03:00−9св2385100 0.0 101356
06:00−8всв2589100 0.2 1006117
09:00−7всв41196100 3.9 998380
12:00−4вюв31394100 8.8 991356
15:00−1вюв51395100 2.1 983275
18:000юв3789100 2.2 979131
21:000юз51088100 0.0 977213